Change the Weather History Date:

Thursday, September 26, 2013

  Actual Average Record
Temperature  
Mean Temperature 63 °F -  
Max Temperature 73 °F - - ()
Min Temperature 53 °F - - ()
Degree Days  
Heating Degree Days 2    
Growing Degree Days 13 (Base 50)    
Moisture  
Dew Point 57 °F    
Average Humidity 86    
Maximum Humidity 100    
Minimum Humidity 60    
Precipitation  
Precipitation 0.00 in - - ()
Sea Level Pressure  
Sea Level Pressure 29.88 in    
Wind  
Wind Speed 6 mph ()    
Max Wind Speed 13 mph    
Max Gust Speed -    
Visibility 5.1 miles    
Events Rain    
T = Trace of Precipitation, MM = Missing Value Source: Averaged Metar Reports

Daily Weather History Graph

Daily Weather History Graph

Search for Another Location

Airport or City:

Trip Planner

Search our weather history database for the weather conditions in past years. The results will help you decide how hot, cold, wet, or windy it might be!

Date:

Astronomy

Sep. 26, 2013 Rise Set
Actual Time 6:42 AM CEST 6:39 PM CEST
Civil Twilight 6:11 AM CEST 7:10 PM CEST
Nautical Twilight 5:35 AM CEST 7:45 PM CEST
Astronomical Twilight 4:59 AM CEST 8:22 PM CEST
Moon 11:01 PM CEST (9/26) 1:42 PM CEST (9/26)
Length of Visible Light 12h 58m
Length of Day
11h 57m
Waning Gibbous, 57% of the Moon is Illuminated
Sep 26
Waning Gibbous
Sep 27
Last Quarter
Oct 5
New
Oct 12
First Quarter
Oct 19
Full

Hourly Weather History & Observations

Time (CEST) Temp. Dew Point Humidity Pressure Visibility Wind Dir Wind Speed Gust Speed Precip Events Conditions
12:15 AM 57.2 °F 55.4 °F 94% 29.89 in 5.0 mi South 6.7 mph - N/A   Unknown
12:45 AM 57.2 °F 55.4 °F 94% 29.86 in 5.0 mi South 4.5 mph - N/A   Unknown
1:15 AM 59.0 °F 55.4 °F 88% 29.86 in 5.0 mi SSW 4.5 mph - N/A   Unknown
1:45 AM 57.2 °F 55.4 °F 94% 29.89 in 5.0 mi SW 4.5 mph - N/A   Unknown
2:15 AM 57.2 °F 55.4 °F 94% 29.89 in 5.0 mi SW 6.7 mph - N/A   Unknown
2:45 AM 55.4 °F 55.4 °F 100% 29.86 in 3.7 mi SW 4.5 mph - N/A   Unknown
3:15 AM 55.4 °F 55.4 °F 100% 29.86 in 3.7 mi SW 4.5 mph - N/A   Unknown
3:45 AM 53.6 °F 53.6 °F 100% 29.86 in 3.7 mi SSW 4.5 mph - N/A   Unknown
4:15 AM 55.4 °F 55.4 °F 100% 29.86 in 3.7 mi WNW 2.2 mph - N/A   Unknown
4:45 AM 53.6 °F 53.6 °F 100% 29.86 in 3.7 mi SSE 4.5 mph - N/A   Unknown
5:15 AM 59.0 °F 57.2 °F 94% 29.86 in 3.7 mi South 4.5 mph - N/A   Unknown
5:45 AM 59.0 °F 57.2 °F 94% 29.86 in 3.7 mi South 6.7 mph - N/A   Unknown
6:15 AM 59.0 °F 57.2 °F 94% 29.86 in 3.7 mi SSW 6.7 mph - N/A   Unknown
6:40 AM 59.0 °F 57.2 °F 94% 29.86 in 3.1 mi South 6.7 mph - N/A   Mostly Cloudy
6:45 AM 59.0 °F 57.2 °F 94% 29.86 in 3.1 mi South 6.7 mph - N/A   Mostly Cloudy
7:15 AM 57.2 °F 57.2 °F 100% 29.86 in 3.1 mi South 6.7 mph - N/A   Scattered Clouds
7:45 AM 59.0 °F 57.2 °F 94% 29.86 in 5.0 mi South 6.7 mph - N/A   Unknown
8:15 AM 59.0 °F 57.2 °F 94% 29.86 in 5.0 mi South 6.7 mph - N/A   Unknown
8:45 AM 62.6 °F 59.0 °F 88% 29.86 in 5.0 mi SSW 4.5 mph - N/A   Unknown
9:15 AM 64.4 °F 59.0 °F 83% 29.86 in - SSW 8.9 mph - N/A   Clear
9:45 AM 64.4 °F 59.0 °F 83% 29.86 in - SSW 8.9 mph - N/A   Clear
10:15 AM 64.4 °F 59.0 °F 83% 29.86 in - SSW 8.9 mph - N/A   Clear
10:45 AM 66.2 °F 60.8 °F 83% 29.86 in - SSW 6.7 mph - N/A   Clear
11:15 AM 68.0 °F 60.8 °F 78% 29.86 in - South 4.5 mph - N/A   Clear
11:45 AM 68.0 °F 60.8 °F 78% 29.86 in - SW 4.5 mph - N/A   Clear
12:15 PM 69.8 °F 60.8 °F 73% 29.86 in - SW 4.5 mph - N/A   Clear
12:45 PM 71.6 °F 57.2 °F 60% 29.86 in 6.2 mi SSW 4.5 mph - N/A   Mostly Cloudy
1:15 PM 73.4 °F 60.8 °F 65% 29.83 in 6.2 mi SW 4.5 mph - N/A   Mostly Cloudy
1:45 PM 71.6 °F 59.0 °F 64% 29.83 in 6.2 mi WSW 4.5 mph - N/A   Mostly Cloudy
2:11 PM 69.8 °F 60.8 °F 73% 29.86 in 6.2 mi WNW 6.7 mph - N/A Rain Light Rain Showers
2:15 PM 69.8 °F 59.0 °F 68% 29.86 in 6.2 mi NW 8.9 mph - N/A Rain Light Rain Showers
2:45 PM 66.2 °F 60.8 °F 83% 29.89 in 6.2 mi North 11.2 mph - N/A Rain Light Rain Showers
3:15 PM 64.4 °F 59.0 °F 83% 29.89 in 6.2 mi NNW 13.4 mph - N/A Rain Light Rain Showers
3:45 PM 62.6 °F 57.2 °F 82% 29.89 in 6.2 mi North 13.4 mph - N/A Rain Light Rain Showers
4:15 PM 60.8 °F 55.4 °F 82% 29.89 in 6.2 mi NNW 6.7 mph - N/A Rain Light Rain Showers
4:31 PM 60.8 °F 55.4 °F 82% 29.86 in 6.2 mi North 6.7 mph - N/A   Mostly Cloudy
4:45 PM 60.8 °F 57.2 °F 88% 29.89 in 6.2 mi NNE 4.5 mph - N/A   Mostly Cloudy
5:15 PM 60.8 °F 57.2 °F 88% 29.89 in 6.2 mi NNW 2.2 mph - N/A   Mostly Cloudy
5:45 PM 60.8 °F 55.4 °F 82% 29.89 in 6.2 mi NNW 11.2 mph - N/A   Mostly Cloudy
6:15 PM 62.6 °F 53.6 °F 72% 29.89 in 6.2 mi NW 13.4 mph - N/A   Mostly Cloudy
6:45 PM 62.6 °F 53.6 °F 72% 29.89 in 6.2 mi NW 13.4 mph - N/A   Mostly Cloudy
7:15 PM 60.8 °F 55.4 °F 82% 29.92 in 6.2 mi NW 8.9 mph - N/A   Mostly Cloudy
7:45 PM 60.8 °F 55.4 °F 82% 29.92 in 6.2 mi NW 8.9 mph - N/A   Mostly Cloudy
8:15 PM 60.8 °F 55.4 °F 82% 29.92 in 6.2 mi NW 11.2 mph - N/A   Mostly Cloudy
8:45 PM 59.0 °F 55.4 °F 88% 29.95 in - NW 2.2 mph - N/A   Clear
9:15 PM 57.2 °F 53.6 °F 88% 29.95 in - NW 4.5 mph - N/A   Clear
9:45 PM 57.2 °F 53.6 °F 88% 29.95 in - NW 6.7 mph - N/A   Clear
10:15 PM 55.4 °F 53.6 °F 94% 29.98 in - NNW 6.7 mph - N/A   Clear
10:45 PM 53.6 °F 51.8 °F 94% 29.98 in - NNW 6.7 mph - N/A   Clear
11:15 PM 53.6 °F 51.8 °F 94% 29.98 in - North 4.5 mph - N/A   Clear
11:45 PM 55.4 °F 51.8 °F 88% 29.98 in - North 6.7 mph - N/A   Clear